Weather History for Norfolk, NE

Change the Weather History Date:

Sunday, September 2, 2012

  Actual Average Record
Temperature  
Mean Temperature 82 °F 69 °F  
Max Temperature 99 °F 81 °F 101 °F (1956)
Min Temperature 65 °F 57 °F 40 °F (1974)
Degree Days  
Heating Degree Days 0 1  
Month to date heating degree days 0 2  
Since 1 July heating degree days 11 18  
Cooling Degree Days 17 6  
Month to date cooling degree days 31 12  
Year to date cooling degree days 1298 828  
Growing Degree Days 32 (Base 50)    
Moisture  
Dew Point 62 °F    
Average Humidity 58    
Maximum Humidity 87    
Minimum Humidity 29    
Precipitation  
Precipitation 0.00 in 0.09 in 3.88 in (1970)
Month to date precipitation 0.00 0.19  
Year to date precipitation 11.84 20.72  
Snow  
Snow 0.00 in 0.00 in - ()
Month to date snowfall 0.0 0.0  
Since 1 July snowfall 0.0 0.0  
Snow Depth 0.00 in    
Sea Level Pressure  
Sea Level Pressure 29.86 in    
Wind  
Wind Speed 10 mph (South)    
Max Wind Speed 20 mph    
Max Gust Speed 25 mph    
Visibility 10 miles    
Events      
T = Trace of Precipitation, MM = Missing Value Source: NWS Daily Summary

Daily Weather History Graph

Daily Weather History Graph

Search for Another Location

Airport:

Trip Planner

Search our weather history database for the weather conditions in past years. The results will help you decide how hot, cold, wet, or windy it might be!

Date:

Astronomy

Sep. 02, 2012 Rise Set
Actual Time 6:56 AM CDT 8:00 PM CDT
Civil Twilight 6:28 AM CDT 8:29 PM CDT
Nautical Twilight 5:54 AM CDT 9:03 PM CDT
Astronomical Twilight 5:18 AM CDT 9:38 PM CDT
Moon 8:45 PM CDT (9/2) 9:10 AM CDT (9/2)
Length of Visible Light 14h 01m
Length of Day
13h 03m
Waning Gibbous, 95% of the Moon is Illuminated
Sep 2
Waning Gibbous
Sep 8
Last Quarter
Sep 15
New
Sep 22
First Quarter
Sep 29
Full

Hourly Weather History & Observations

Time (CDT) Temp. Heat Index Dew Point Humidity Pressure Visibility Wind Dir Wind Speed Gust Speed Precip Events Conditions
12:56 AM 73.9 °F - 62.1 °F 66% 29.91 in 10.0 mi SE 6.9 mph - N/A   Clear
1:56 AM 73.9 °F - 62.1 °F 66% 29.91 in 10.0 mi SSE 11.5 mph - N/A   Clear
2:56 AM 72.0 °F - 63.0 °F 73% 29.91 in 10.0 mi SE 12.7 mph - N/A   Clear
3:56 AM 70.0 °F - 62.1 °F 76% 29.91 in 10.0 mi SSE 10.4 mph - N/A   Clear
4:56 AM 69.1 °F - 61.0 °F 75% 29.90 in 10.0 mi SSE 9.2 mph - N/A   Clear
5:56 AM 64.9 °F - 61.0 °F 87% 29.91 in 10.0 mi SSE 8.1 mph - N/A   Clear
7:56 AM 68.0 °F - 62.1 °F 81% 29.94 in 10.0 mi SSE 5.8 mph - N/A   Clear
8:56 AM 73.0 °F - 63.0 °F 71% 29.91 in 10.0 mi SSE 12.7 mph - N/A   Clear
9:56 AM 78.1 °F - 64.0 °F 62% 29.91 in 10.0 mi SSE 10.4 mph - N/A   Clear
10:56 AM 82.9 °F 84.4 °F 64.0 °F 53% 29.90 in 10.0 mi South 12.7 mph - N/A   Clear
11:56 AM 88.0 °F 89.3 °F 64.0 °F 45% 29.88 in 10.0 mi South 10.4 mph 18.4 mph N/A   Clear
12:56 PM 91.9 °F 92.9 °F 63.0 °F 38% 29.86 in 10.0 mi South 12.7 mph 18.4 mph N/A   Clear
1:56 PM 95.0 °F 95.2 °F 61.0 °F 32% 29.83 in 10.0 mi South 15.0 mph 20.7 mph N/A   Clear
2:56 PM 97.0 °F 97.4 °F 61.0 °F 30% 29.81 in 10.0 mi SSW 12.7 mph 19.6 mph N/A   Clear
3:56 PM 97.0 °F 96.9 °F 60.1 °F 29% 29.81 in 10.0 mi SSW 11.5 mph 24.2 mph N/A   Clear
4:56 PM 98.1 °F 98.1 °F 60.1 °F 28% 29.80 in 10.0 mi SW 10.4 mph - N/A   Clear
5:56 PM 96.1 °F 96.0 °F 60.1 °F 30% 29.80 in 10.0 mi SSW 9.2 mph - N/A   Clear
6:56 PM 93.9 °F 93.6 °F 60.1 °F 32% 29.78 in 10.0 mi South 6.9 mph - N/A   Clear
7:56 PM 90.0 °F 90.3 °F 62.1 °F 39% 29.79 in 10.0 mi SSE 6.9 mph - N/A   Clear
8:56 PM 84.9 °F 85.4 °F 62.1 °F 46% 29.81 in 10.0 mi SSE 6.9 mph - N/A   Clear
9:56 PM 84.0 °F 84.9 °F 63.0 °F 49% 29.82 in 10.0 mi SSE 11.5 mph - N/A   Clear
11:56 PM 75.9 °F - 64.0 °F 67% 29.85 in 10.0 mi SSW 3.5 mph - N/A   Clear